AEA05 LEMD-MMMX

Flight info

Callsign AEA05
Flight time 12h 22m
Altitude 31000
Route CCS DCT ELVAR/N0483F330 DCT KOMUT/M083F340 DCT 37N020W 3530N03000W/M083F360 34N040W 33N050W 30N060W/M083F380 DCT MEGGG M331 LFANO M595 MILLE/N0477F380 DCT ZQA DCT LULLS/N0471F400 Y196 CANOA UM346 AXOMU DCT NUBEL UT154 ENAGA ENAGA3A
Aircraft A333/H-SDE3GHIJ2J3J5M1RVWXY/LB2D1

Departure

Time 2026-04-30 22:47
Airport Adolfo Suárez Madrid–Barajas Airport (LEMD)

Arrival

Time 2026-05-01 11:10
Airport Mexico City Benito Juárez International Airport (MMMX)
Time Latitude Longitude Altitude Speed Heading
2026-04-30 22:11 40.46286 -3.56911 1975 ft 0 kts 301°
2026-04-30 22:30 40.46261 -3.56858 1978 ft 4 kts 306°
2026-04-30 22:31 40.46196 -3.56863 1979 ft 4 kts 36°
2026-04-30 22:32 40.46186 -3.56873 1979 ft 0 kts 36°
2026-04-30 22:33 40.46205 -3.56855 1979 ft 4 kts 36°
2026-04-30 22:34 40.46265 -3.56801 1979 ft 4 kts 34°
2026-04-30 22:35 40.46296 -3.56723 1977 ft 10 kts 89°
2026-04-30 22:36 40.46423 -3.56582 1977 ft 4 kts
2026-04-30 22:36 40.46447 -3.56580 1975 ft 3 kts
2026-04-30 22:37 40.46596 -3.56575 1978 ft 12 kts
2026-04-30 22:37 40.46687 -3.56568 1981 ft 14 kts
2026-04-30 22:37 40.46916 -3.56551 1980 ft 17 kts
2026-04-30 22:38 40.47110 -3.56596 1986 ft 13 kts 332°
2026-04-30 22:38 40.47243 -3.56723 1990 ft 11 kts 322°
2026-04-30 22:39 40.47300 -3.56782 1994 ft 10 kts 322°
2026-04-30 22:39 40.47472 -3.56957 1996 ft 13 kts 322°
2026-04-30 22:40 40.47732 -3.57224 2001 ft 13 kts 323°
2026-04-30 22:41 40.47882 -3.57372 2004 ft 5 kts 322°
2026-04-30 22:41 40.47967 -3.57459 2002 ft 13 kts 322°
2026-04-30 22:42 40.48398 -3.57887 1995 ft 20 kts 327°
2026-04-30 22:43 40.48573 -3.58031 2003 ft 10 kts 328°
2026-04-30 22:43 40.48684 -3.58051 2003 ft 10 kts 359°
2026-04-30 22:44 40.48860 -3.58051 2005 ft 15 kts
2026-04-30 22:45 40.49243 -3.57832 1998 ft 23 kts 89°
2026-04-30 22:45 40.49394 -3.57460 1989 ft 28 kts 11°
2026-04-30 22:46 40.49941 -3.57458 1993 ft 72 kts 359°
2026-04-30 22:47 40.53842 -3.57538 2556 ft 180 kts 359°
2026-04-30 22:47 40.56337 -3.57034 3493 ft 193 kts 14°
2026-04-30 22:48 40.59228 -3.56825 3833 ft 233 kts 337°
2026-04-30 22:49 40.61781 -3.62675 4851 ft 265 kts 288°
2026-04-30 22:49 40.63571 -3.69649 6643 ft 272 kts 287°
2026-04-30 22:50 40.64497 -3.79556 8982 ft 281 kts 266°
2026-04-30 22:51 40.64351 -3.84753 10135 ft 288 kts 266°
2026-04-30 22:51 40.64210 -3.90196 10670 ft 314 kts 267°
2026-04-30 22:52 40.64162 -3.92125 10812 ft 324 kts 267°
2026-04-30 22:52 40.64008 -3.98324 11224 ft 353 kts 267°
2026-04-30 22:53 40.63840 -4.04999 11902 ft 371 kts 267°
2026-04-30 22:53 40.63665 -4.11827 13005 ft 375 kts 266°
2026-04-30 22:53 40.63576 -4.15265 13582 ft 376 kts 266°
2026-04-30 22:54 40.63394 -4.22198 14547 ft 382 kts 266°
2026-04-30 22:55 40.63103 -4.32791 15910 ft 390 kts 266°
2026-04-30 22:55 40.62900 -4.39975 16807 ft 395 kts 266°
2026-04-30 22:56 40.62690 -4.47252 17689 ft 400 kts 266°
2026-04-30 22:56 40.60741 -4.57861 18874 ft 405 kts 238°
2026-04-30 22:57 40.57453 -4.63922 19551 ft 410 kts 232°
2026-04-30 22:57 40.53995 -4.69936 20256 ft 414 kts 232°
2026-04-30 22:58 40.50533 -4.75988 20912 ft 419 kts 232°
2026-04-30 22:59 40.45236 -4.85259 21903 ft 427 kts 232°
2026-04-30 22:59 40.39840 -4.94679 22877 ft 434 kts 232°
2026-05-01 07:23 25.43597 -75.80723 30964 ft 460 kts 257°
2026-05-01 07:24 25.41101 -75.90941 30964 ft 458 kts 257°
2026-05-01 07:24 25.39433 -75.97749 30967 ft 458 kts 257°
2026-05-01 07:25 25.37763 -76.04549 30964 ft 458 kts 257°
2026-05-01 07:25 25.36084 -76.11361 30981 ft 461 kts 256°
2026-05-01 07:26 25.34394 -76.18203 30966 ft 462 kts 256°
2026-05-01 07:26 25.32700 -76.25046 30966 ft 461 kts 256°
2026-05-01 07:27 25.31007 -76.31879 30961 ft 461 kts 256°
2026-05-01 07:27 25.29309 -76.38723 30963 ft 463 kts 256°
2026-05-01 07:28 25.27599 -76.45598 30963 ft 464 kts 256°
2026-05-01 07:28 25.25885 -76.52470 30963 ft 464 kts 256°
2026-05-01 07:29 25.24478 -76.58102 30963 ft 463 kts 256°
2026-05-01 07:29 25.23299 -76.62816 30963 ft 463 kts 256°
2026-05-01 07:30 25.21581 -76.69670 30963 ft 463 kts 256°
2026-05-01 07:30 25.19860 -76.76520 30963 ft 463 kts 256°
2026-05-01 07:31 25.18148 -76.83323 30961 ft 463 kts 256°
2026-05-01 07:32 25.13824 -77.00437 30960 ft 463 kts 256°
2026-05-01 07:33 25.11223 -77.10692 30960 ft 463 kts 256°
2026-05-01 07:33 25.08615 -77.20940 30968 ft 462 kts 256°
2026-05-01 07:34 25.05995 -77.31202 30976 ft 465 kts 255°
2026-05-01 07:35 25.04239 -77.38064 30979 ft 465 kts 255°
2026-05-01 07:35 25.02639 -77.44964 30980 ft 464 kts 262°
2026-05-01 07:36 25.01748 -77.51995 30981 ft 463 kts 264°
2026-05-01 07:36 25.01116 -77.57909 30980 ft 463 kts 264°
2026-05-01 07:37 25.00026 -77.68437 30971 ft 462 kts 264°
2026-05-01 07:37 24.99281 -77.75474 30965 ft 462 kts 264°
2026-05-01 07:38 24.98526 -77.82510 30957 ft 462 kts 264°
2026-05-01 07:39 24.97379 -77.93114 30957 ft 462 kts 264°
2026-05-01 07:39 24.96230 -78.03669 30960 ft 462 kts 264°
2026-05-01 07:40 24.95462 -78.10690 30960 ft 462 kts 264°
2026-05-01 07:40 24.94690 -78.17715 30960 ft 462 kts 264°
2026-05-01 07:41 24.93915 -78.24740 30960 ft 462 kts 264°
2026-05-01 07:42 24.92746 -78.35272 30960 ft 462 kts 264°
2026-05-01 07:42 24.91962 -78.42301 30960 ft 462 kts 264°
2026-05-01 07:43 24.91176 -78.49320 30960 ft 462 kts 263°
2026-05-01 07:43 24.89990 -78.59849 30960 ft 462 kts 263°
2026-05-01 07:44 24.88395 -78.73901 30960 ft 463 kts 263°
2026-05-01 07:45 24.87596 -78.80899 30960 ft 463 kts 263°
2026-05-01 07:45 24.86788 -78.87937 30960 ft 463 kts 263°
2026-05-01 07:46 24.85972 -78.95023 30960 ft 463 kts 263°
2026-05-01 07:47 24.84755 -79.05531 30961 ft 463 kts 263°
2026-05-01 07:47 24.83936 -79.12568 30960 ft 464 kts 263°
2026-05-01 07:48 24.82701 -79.23126 30961 ft 464 kts 263°
2026-05-01 07:48 24.81872 -79.30172 30958 ft 464 kts 263°
2026-05-01 07:49 24.80618 -79.40780 30961 ft 464 kts 263°
2026-05-01 07:50 24.79782 -79.47821 30958 ft 464 kts 263°
2026-05-01 07:50 24.78521 -79.58379 30958 ft 464 kts 263°
2026-05-01 07:51 24.77676 -79.65421 30958 ft 464 kts 263°
2026-05-01 07:52 24.76401 -79.75985 30958 ft 464 kts 263°
2026-05-01 07:52 24.75548 -79.83025 30957 ft 465 kts 263°
2026-05-01 07:53 24.74259 -79.93603 30958 ft 465 kts 263°
2026-05-01 07:53 24.73395 -80.00659 30958 ft 465 kts 263°
2026-05-01 07:55 24.71222 -80.18284 30956 ft 465 kts 263°
2026-05-01 07:56 24.69025 -80.35926 30957 ft 467 kts 263°
2026-05-01 07:57 24.67692 -80.46555 30958 ft 468 kts 263°
2026-05-01 07:58 24.65903 -80.60717 30958 ft 467 kts 263°
2026-05-01 07:59 24.64101 -80.74866 30957 ft 467 kts 263°
2026-05-01 08:00 24.61375 -80.96080 30960 ft 466 kts 262°
2026-05-01 08:01 24.59548 -81.10162 30958 ft 465 kts 262°
2026-05-01 08:02 24.58169 -81.20725 30958 ft 465 kts 262°
2026-05-01 08:03 24.56783 -81.31277 30965 ft 465 kts 262°
2026-05-01 08:03 24.55401 -81.41745 30969 ft 463 kts 262°
2026-05-01 08:04 24.53541 -81.55742 30974 ft 463 kts 262°
2026-05-01 08:05 24.52138 -81.66239 30974 ft 463 kts 262°
2026-05-01 08:06 24.50731 -81.76705 30971 ft 461 kts 262°
2026-05-01 08:07 24.48847 -81.90635 30970 ft 461 kts 262°
2026-05-01 08:07 24.47331 -81.97464 30962 ft 462 kts 249°
2026-05-01 08:08 24.46082 -82.00714 30962 ft 463 kts 247°
2026-05-01 08:09 24.40530 -82.13479 30952 ft 464 kts 245°
2026-05-01 08:09 24.37712 -82.19836 30952 ft 463 kts 245°
2026-05-01 08:10 24.32149 -82.32479 30951 ft 463 kts 245°
2026-05-01 08:11 24.26551 -82.45193 30955 ft 462 kts 245°
2026-05-01 08:12 24.22363 -82.54677 30952 ft 461 kts 245°
2026-05-01 08:13 24.18146 -82.64210 30955 ft 464 kts 245°
2026-05-01 08:13 24.13904 -82.73777 30955 ft 466 kts 245°
2026-05-01 08:14 24.11071 -82.80154 30952 ft 465 kts 245°
2026-05-01 08:14 24.08247 -82.86504 30953 ft 464 kts 245°
2026-05-01 08:15 24.04484 -82.94949 30955 ft 464 kts 245°
2026-05-01 08:16 24.01657 -83.01286 30954 ft 464 kts 245°
2026-05-01 08:16 23.99472 -83.07886 30953 ft 462 kts 256°
2026-05-01 08:17 23.97971 -83.14710 30952 ft 462 kts 258°
2026-05-01 08:17 23.96598 -83.21557 30952 ft 459 kts 258°
2026-05-01 08:18 23.95237 -83.28365 30950 ft 458 kts 258°
2026-05-01 08:19 23.92465 -83.41961 30942 ft 458 kts 258°
2026-05-01 08:19 23.91061 -83.48791 30949 ft 463 kts 258°
2026-05-01 08:20 23.89645 -83.55661 30951 ft 463 kts 258°
2026-05-01 08:20 23.88222 -83.62546 30947 ft 460 kts 258°
2026-05-01 08:21 23.86819 -83.69327 30952 ft 457 kts 258°
2026-05-01 08:21 23.85415 -83.76093 30949 ft 457 kts 258°
2026-05-01 08:22 23.84009 -83.82858 30947 ft 457 kts 258°
2026-05-01 08:22 23.82600 -83.89621 30947 ft 457 kts 258°
2026-05-01 08:23 23.81196 -83.96338 30946 ft 456 kts 258°
2026-05-01 08:23 23.79782 -84.03091 30947 ft 456 kts 258°
2026-05-01 08:24 23.78366 -84.09841 30944 ft 456 kts 258°
2026-05-01 08:24 23.76945 -84.16596 30944 ft 456 kts 258°
2026-05-01 08:25 23.75522 -84.23347 30945 ft 456 kts 258°
2026-05-01 08:25 23.74088 -84.30132 30943 ft 456 kts 258°
2026-05-01 08:26 23.72654 -84.36897 30941 ft 458 kts 258°
2026-05-01 08:26 23.71216 -84.43665 30941 ft 458 kts 258°
2026-05-01 08:27 23.69784 -84.50388 30940 ft 458 kts 258°
2026-05-01 08:27 23.68341 -84.57151 30941 ft 458 kts 258°
2026-05-01 08:28 23.66885 -84.63962 30938 ft 458 kts 258°
2026-05-01 08:28 23.65435 -84.70724 30934 ft 459 kts 258°
2026-05-01 08:29 23.63976 -84.77516 30938 ft 460 kts 258°
2026-05-01 08:29 23.62516 -84.84298 30935 ft 460 kts 258°
2026-05-01 08:30 23.61050 -84.91091 30938 ft 460 kts 258°
2026-05-01 08:30 23.59582 -84.97876 30939 ft 460 kts 258°
2026-05-01 08:31 23.58112 -85.04658 30936 ft 460 kts 258°
2026-05-01 08:31 23.56637 -85.11446 30936 ft 461 kts 258°
2026-05-01 08:32 23.55156 -85.18248 30936 ft 461 kts 258°
2026-05-01 08:32 23.53671 -85.25048 30936 ft 461 kts 258°
2026-05-01 08:33 23.52184 -85.31846 30929 ft 461 kts 258°
2026-05-01 08:33 23.50692 -85.38647 30930 ft 461 kts 258°
2026-05-01 08:34 23.49199 -85.45444 30928 ft 462 kts 258°
2026-05-01 08:34 23.47700 -85.52249 30928 ft 462 kts 258°
2026-05-01 08:35 23.46203 -85.59041 30928 ft 462 kts 258°
2026-05-01 08:35 23.44706 -85.65822 30928 ft 462 kts 258°
2026-05-01 08:36 23.43200 -85.72628 30927 ft 462 kts 258°
2026-05-01 08:36 23.41697 -85.79407 30925 ft 462 kts 258°
2026-05-01 08:37 23.40185 -85.86213 30924 ft 462 kts 258°
2026-05-01 08:37 23.38677 -85.92982 30925 ft 462 kts 258°
2026-05-01 08:38 23.37159 -85.99785 30919 ft 463 kts 258°
2026-05-01 08:38 23.36394 -86.03210 31026 ft 467 kts 258°
2026-05-01 08:38 23.35626 -86.06647 31279 ft 468 kts 258°
2026-05-01 08:38 23.34855 -86.10090 31587 ft 468 kts 258°
2026-05-01 08:39 23.34085 -86.13524 31944 ft 467 kts 258°
2026-05-01 08:39 23.33314 -86.16960 32263 ft 467 kts 258°
2026-05-01 08:39 23.32544 -86.20389 32570 ft 467 kts 258°
2026-05-01 08:39 23.31772 -86.23819 32875 ft 467 kts 258°
2026-05-01 08:40 23.30231 -86.30665 33543 ft 466 kts 258°
2026-05-01 08:40 23.29459 -86.34086 33856 ft 465 kts 258°
2026-05-01 08:40 23.28686 -86.37497 34152 ft 465 kts 258°
2026-05-01 08:41 23.27914 -86.40894 34435 ft 464 kts 258°
2026-05-01 08:41 23.27142 -86.44290 34736 ft 463 kts 258°
2026-05-01 08:41 23.26336 -86.47826 34901 ft 463 kts 258°
2026-05-01 08:41 23.25562 -86.51221 34923 ft 462 kts 258°
2026-05-01 08:42 23.24019 -86.57981 34921 ft 460 kts 258°
2026-05-01 08:42 23.22475 -86.64736 34920 ft 461 kts 258°
2026-05-01 08:43 23.20928 -86.71495 34919 ft 461 kts 258°
2026-05-01 08:43 23.19382 -86.78248 34919 ft 461 kts 258°
2026-05-01 08:44 23.17831 -86.85008 34919 ft 461 kts 258°
2026-05-01 08:44 23.16279 -86.91757 34919 ft 461 kts 258°
2026-05-01 08:45 23.14723 -86.98505 34916 ft 460 kts 258°
2026-05-01 08:45 23.13164 -87.05253 34916 ft 460 kts 258°
2026-05-01 08:46 23.11603 -87.11999 34910 ft 460 kts 258°
2026-05-01 08:46 23.10038 -87.18750 34912 ft 460 kts 258°
2026-05-01 08:47 23.08473 -87.25484 34911 ft 461 kts 258°
2026-05-01 08:47 23.06903 -87.32227 34912 ft 461 kts 258°
2026-05-01 08:48 23.05326 -87.38986 34909 ft 462 kts 258°
2026-05-01 08:48 23.03745 -87.45744 34908 ft 461 kts 258°
2026-05-01 08:49 23.02429 -87.51363 34911 ft 462 kts 258°
2026-05-01 08:49 23.00842 -87.58123 34908 ft 462 kts 258°
2026-05-01 08:50 22.99254 -87.64875 34908 ft 462 kts 258°
2026-05-01 08:50 22.97663 -87.71627 34902 ft 462 kts 258°
2026-05-01 08:51 22.96072 -87.78365 34906 ft 461 kts 258°
2026-05-01 08:51 22.94481 -87.85086 34906 ft 462 kts 258°
2026-05-01 08:52 22.92882 -87.91834 34903 ft 462 kts 258°
2026-05-01 08:52 22.91293 -87.98520 34903 ft 462 kts 258°
2026-05-01 08:53 22.89673 -88.05325 34898 ft 462 kts 258°
2026-05-01 08:53 22.88066 -88.12064 34896 ft 462 kts 258°
2026-05-01 08:54 22.86455 -88.18802 34897 ft 462 kts 258°
2026-05-01 08:54 22.84842 -88.25538 34897 ft 462 kts 258°
2026-05-01 08:55 22.83226 -88.32273 34895 ft 462 kts 258°
2026-05-01 08:55 22.81619 -88.38960 34895 ft 462 kts 258°
2026-05-01 08:56 22.79988 -88.45737 34895 ft 462 kts 258°
2026-05-01 08:56 22.78375 -88.52421 34891 ft 461 kts 258°
2026-05-01 08:57 22.76748 -88.59143 34891 ft 461 kts 258°
2026-05-01 08:57 22.75113 -88.65885 34887 ft 463 kts 258°
2026-05-01 08:58 22.73471 -88.72636 34887 ft 464 kts 258°
2026-05-01 08:58 22.71819 -88.79415 34883 ft 464 kts 258°
2026-05-01 08:59 22.70179 -88.86131 34883 ft 463 kts 258°
2026-05-01 08:59 22.68542 -88.92825 34883 ft 462 kts 258°
2026-05-01 09:00 22.66884 -88.99594 34884 ft 462 kts 258°
2026-05-01 09:00 22.65246 -89.06266 34884 ft 462 kts 257°
2026-05-01 09:01 22.63591 -89.12992 34880 ft 462 kts 257°
2026-05-01 09:01 22.61935 -89.19708 34881 ft 462 kts 257°
2026-05-01 09:02 22.60278 -89.26420 34877 ft 461 kts 257°
2026-05-01 09:02 22.58622 -89.33112 34878 ft 460 kts 257°
2026-05-01 09:03 22.56965 -89.39793 34872 ft 459 kts 257°
2026-05-01 09:03 22.55309 -89.46464 34872 ft 459 kts 257°
2026-05-01 09:04 22.53649 -89.53131 34874 ft 459 kts 257°
2026-05-01 09:04 22.51990 -89.59786 34871 ft 459 kts 257°
2026-05-01 09:05 22.50324 -89.66458 34871 ft 459 kts 257°
2026-05-01 09:05 22.48655 -89.73126 34868 ft 459 kts 257°
2026-05-01 09:06 22.46988 -89.79785 34866 ft 459 kts 257°
2026-05-01 09:06 22.45319 -89.86447 34860 ft 459 kts 257°
2026-05-01 09:07 22.43637 -89.93149 34867 ft 463 kts 257°
2026-05-01 09:07 22.41949 -89.99860 34865 ft 463 kts 257°
2026-05-01 09:08 22.40257 -90.06574 34864 ft 462 kts 257°
2026-05-01 09:08 22.38567 -90.13263 34865 ft 461 kts 257°
2026-05-01 09:09 22.36875 -90.19953 34859 ft 461 kts 257°
2026-05-01 09:09 22.35181 -90.26637 34859 ft 461 kts 257°
2026-05-01 09:10 22.33482 -90.33326 34856 ft 461 kts 257°
2026-05-01 09:10 22.31779 -90.40007 34852 ft 461 kts 256°
2026-05-01 09:11 22.30076 -90.46673 34851 ft 461 kts 256°
2026-05-01 09:11 22.28370 -90.53341 34851 ft 460 kts 256°
2026-05-01 09:12 22.26663 -90.60005 34851 ft 460 kts 256°
2026-05-01 09:12 22.24940 -90.66715 34846 ft 460 kts 256°
2026-05-01 09:13 22.23217 -90.73416 34845 ft 460 kts 256°
2026-05-01 09:13 22.21499 -90.80084 34839 ft 460 kts 256°
2026-05-01 09:14 22.19785 -90.86722 34840 ft 460 kts 256°
2026-05-01 09:14 22.18064 -90.93376 34837 ft 460 kts 256°
2026-05-01 09:15 22.16343 -91.00021 34837 ft 460 kts 256°
2026-05-01 09:15 22.14617 -91.06669 34837 ft 460 kts 256°
2026-05-01 09:16 22.12890 -91.13312 34832 ft 460 kts 256°
2026-05-01 09:17 22.10289 -91.23296 34826 ft 462 kts 256°
2026-05-01 09:17 22.07673 -91.33307 34826 ft 463 kts 256°
2026-05-01 09:18 22.05050 -91.43319 34823 ft 462 kts 256°
2026-05-01 09:19 22.02408 -91.53370 34814 ft 462 kts 256°
2026-05-01 09:20 21.99775 -91.63354 34818 ft 462 kts 256°
2026-05-01 09:21 21.96257 -91.76658 34817 ft 462 kts 256°
2026-05-01 09:21 21.93620 -91.86600 34812 ft 462 kts 256°
2026-05-01 09:22 21.90082 -91.99893 34812 ft 461 kts 256°
2026-05-01 09:23 21.87426 -92.09844 34812 ft 461 kts 256°
2026-05-01 09:24 21.84763 -92.19795 34810 ft 461 kts 256°
2026-05-01 09:25 21.81204 -92.33053 34808 ft 460 kts 256°
2026-05-01 09:26 21.78836 -92.41849 34807 ft 459 kts 256°
2026-05-01 09:26 21.76164 -92.51754 34813 ft 461 kts 255°
2026-05-01 09:27 21.73472 -92.61706 34800 ft 462 kts 255°
2026-05-01 09:28 21.71672 -92.68340 34798 ft 462 kts 255°
2026-05-01 09:28 21.69873 -92.74964 34797 ft 461 kts 255°
2026-05-01 09:29 21.67175 -92.84878 34798 ft 461 kts 255°
2026-05-01 09:30 21.64466 -92.94809 34797 ft 461 kts 255°
2026-05-01 09:30 21.61752 -93.04733 34795 ft 461 kts 255°
2026-05-01 09:31 21.59940 -93.11345 34792 ft 461 kts 255°
2026-05-01 09:32 21.57215 -93.21264 34789 ft 461 kts 255°
2026-05-01 09:32 21.54487 -93.31171 34793 ft 461 kts 255°
2026-05-01 09:33 21.52667 -93.37769 34785 ft 461 kts 255°
2026-05-01 09:34 21.49933 -93.47655 34787 ft 461 kts 255°
2026-05-01 09:34 21.47189 -93.57554 34774 ft 461 kts 255°
2026-05-01 09:35 21.44439 -93.67450 34784 ft 461 kts 255°
2026-05-01 09:36 21.42603 -93.74044 34783 ft 461 kts 255°
2026-05-01 09:36 21.40765 -93.80631 34782 ft 461 kts 255°
2026-05-01 09:37 21.38925 -93.87218 34780 ft 460 kts 255°
2026-05-01 09:37 21.36162 -93.97084 34771 ft 460 kts 255°
2026-05-01 09:38 21.33395 -94.06945 34781 ft 460 kts 255°
2026-05-01 09:39 21.30628 -94.16778 34767 ft 460 kts 255°
2026-05-01 09:39 21.28777 -94.23344 34772 ft 460 kts 255°
2026-05-01 09:40 21.25991 -94.33206 34774 ft 461 kts 255°
2026-05-01 09:41 21.24130 -94.39780 34761 ft 460 kts 255°
2026-05-01 09:41 21.21336 -94.49630 34765 ft 460 kts 255°
2026-05-01 09:42 21.19471 -94.56192 34769 ft 461 kts 255°
2026-05-01 09:43 21.15725 -94.69341 34764 ft 462 kts 255°
2026-05-01 09:43 21.13846 -94.75918 34764 ft 462 kts 255°
2026-05-01 09:44 21.11021 -94.85791 34763 ft 462 kts 255°
2026-05-01 09:45 21.09135 -94.92370 34761 ft 462 kts 255°
2026-05-01 09:45 21.06554 -95.02296 34759 ft 460 kts 259°
2026-05-01 09:46 21.05261 -95.09017 34759 ft 462 kts 260°
2026-05-01 09:46 21.04029 -95.15751 34760 ft 463 kts 260°
2026-05-01 09:47 21.02792 -95.22520 34759 ft 463 kts 260°
2026-05-01 09:47 21.01547 -95.29282 34759 ft 463 kts 260°
2026-05-01 09:48 21.00304 -95.36038 34748 ft 463 kts 260°
2026-05-01 09:48 20.99058 -95.42805 34758 ft 463 kts 260°
2026-05-01 09:49 20.97809 -95.49569 34752 ft 463 kts 260°
2026-05-01 09:49 20.96557 -95.56334 34749 ft 463 kts 260°
2026-05-01 09:50 20.95296 -95.63090 34757 ft 463 kts 260°
2026-05-01 09:50 20.94024 -95.69853 34748 ft 463 kts 260°
2026-05-01 09:51 20.92756 -95.76586 34748 ft 464 kts 260°
2026-05-01 09:51 20.91479 -95.83352 34745 ft 464 kts 260°
2026-05-01 09:52 20.90200 -95.90119 34742 ft 464 kts 260°
2026-05-01 09:52 20.88917 -95.96889 34739 ft 464 kts 260°
2026-05-01 09:53 20.87633 -96.03651 34741 ft 464 kts 260°
2026-05-01 09:53 20.86346 -96.10411 34740 ft 464 kts 260°
2026-05-01 09:54 20.85058 -96.17165 34734 ft 463 kts 260°
2026-05-01 09:54 20.83768 -96.23910 34738 ft 463 kts 260°
2026-05-01 09:55 20.82478 -96.30643 34732 ft 463 kts 260°
2026-05-01 09:55 20.81175 -96.37430 34732 ft 463 kts 260°
2026-05-01 09:56 20.79876 -96.44178 34728 ft 463 kts 260°
2026-05-01 09:56 20.78586 -96.50870 34731 ft 463 kts 260°
2026-05-01 09:57 20.77286 -96.57595 34726 ft 463 kts 260°
2026-05-01 09:57 20.75984 -96.64331 34721 ft 463 kts 260°
2026-05-01 09:58 20.74683 -96.71058 34725 ft 463 kts 260°
2026-05-01 09:58 20.73379 -96.77788 34713 ft 462 kts 260°
2026-05-01 09:59 20.72072 -96.84514 34716 ft 463 kts 259°
2026-05-01 09:59 20.70758 -96.91243 34715 ft 462 kts 259°
2026-05-01 10:00 20.69443 -96.97960 34724 ft 462 kts 259°
2026-05-01 10:00 20.68125 -97.04679 34726 ft 462 kts 259°
2026-05-01 10:01 20.66808 -97.11375 34723 ft 462 kts 259°
2026-05-01 10:01 20.65481 -97.18114 34724 ft 463 kts 259°
2026-05-01 10:02 20.64142 -97.24896 34727 ft 465 kts 259°
2026-05-01 10:02 20.62806 -97.31650 34732 ft 465 kts 259°
2026-05-01 10:03 20.61467 -97.38405 34732 ft 465 kts 259°
2026-05-01 10:03 20.59657 -97.45017 34734 ft 467 kts 245°
2026-05-01 10:04 20.55991 -97.50760 34731 ft 471 kts 233°
2026-05-01 10:04 20.52512 -97.55238 34728 ft 472 kts 231°
2026-05-01 10:05 20.48229 -97.60541 34734 ft 472 kts 231°
2026-05-01 10:05 20.43957 -97.65854 34736 ft 471 kts 231°
2026-05-01 10:06 20.39711 -97.71185 34739 ft 471 kts 232°
2026-05-01 10:06 20.35481 -97.76514 34758 ft 471 kts 232°
2026-05-01 10:07 20.31244 -97.81849 34757 ft 471 kts 232°
2026-05-01 10:07 20.27004 -97.87180 34767 ft 472 kts 231°
2026-05-01 10:08 20.20631 -97.95182 34787 ft 474 kts 232°
2026-05-01 10:09 20.16368 -98.00530 34786 ft 473 kts 232°
2026-05-01 10:09 20.12106 -98.05869 34840 ft 473 kts 231°
2026-05-01 10:10 20.07840 -98.11198 34836 ft 473 kts 231°
2026-05-01 10:10 20.00937 -98.18711 34866 ft 477 kts 212°
2026-05-01 10:11 19.97887 -98.20141 34889 ft 480 kts 201°
2026-05-01 10:11 19.94707 -98.21247 34881 ft 482 kts 200°
2026-05-01 10:11 19.88319 -98.23426 34883 ft 482 kts 200°
2026-05-01 10:12 19.81953 -98.25670 34909 ft 482 kts 200°
2026-05-01 10:13 19.72421 -98.29081 34927 ft 482 kts 201°
2026-05-01 10:13 19.66639 -98.32341 34924 ft 472 kts 226°
2026-05-01 10:14 19.63427 -98.38092 34921 ft 438 kts 259°
2026-05-01 10:14 19.63169 -98.41229 34919 ft 421 kts 276°
2026-05-01 10:14 19.63821 -98.44186 34923 ft 406 kts 294°
2026-05-01 10:14 19.65302 -98.46661 34923 ft 393 kts 313°
2026-05-01 10:15 19.67447 -98.48393 34922 ft 387 kts 333°
2026-05-01 10:15 19.70024 -98.49196 34921 ft 390 kts 353°
2026-05-01 10:15 19.72737 -98.49009 34923 ft 395 kts
2026-05-01 10:15 19.75465 -98.48663 34903 ft 394 kts 354°
2026-05-01 10:16 19.78105 -98.49282 34902 ft 388 kts 333°
2026-05-01 10:16 19.80403 -98.50748 34896 ft 386 kts 322°
2026-05-01 10:17 19.86373 -98.56457 34879 ft 386 kts 301°
2026-05-01 10:17 19.90195 -98.63976 34868 ft 386 kts 285°
2026-05-01 10:18 19.89874 -98.69525 34894 ft 387 kts 245°
2026-05-01 10:18 19.88325 -98.71875 34919 ft 391 kts 225°
2026-05-01 10:18 19.86073 -98.73502 34954 ft 396 kts 204°
2026-05-01 10:19 19.83391 -98.74199 34986 ft 401 kts 184°
2026-05-01 10:19 19.77788 -98.74242 35002 ft 405 kts 187°
2026-05-01 10:20 19.69586 -98.75996 35021 ft 399 kts 198°
2026-05-01 10:20 19.66934 -98.76805 34877 ft 394 kts 199°
2026-05-01 10:20 19.64328 -98.77644 34892 ft 392 kts 199°
2026-05-01 10:21 19.57114 -98.81253 34968 ft 379 kts 233°
2026-05-01 10:21 19.55769 -98.83622 35002 ft 375 kts 246°
2026-05-01 10:22 19.53520 -98.88654 35065 ft 380 kts 244°
2026-05-01 10:23 19.49678 -98.96028 35168 ft 381 kts 242°
2026-05-01 10:23 19.45650 -99.03294 35211 ft 381 kts 241°
2026-05-01 10:24 19.40255 -99.12959 35209 ft 381 kts 243°
2026-05-01 10:25 19.37133 -99.17413 35177 ft 383 kts 214°
2026-05-01 10:25 19.32011 -99.18636 35122 ft 391 kts 171°
2026-05-01 10:26 19.29437 -99.17696 35101 ft 395 kts 150°
2026-05-01 10:26 19.27333 -99.15831 35089 ft 398 kts 128°
2026-05-01 10:26 19.25570 -99.10393 35088 ft 399 kts 85°
2026-05-01 10:27 19.27633 -99.05124 35119 ft 392 kts 43°
2026-05-01 10:28 19.33879 -98.99684 35168 ft 397 kts 37°
2026-05-01 10:28 19.37401 -98.95197 35154 ft 401 kts 61°
2026-05-01 10:28 19.38813 -98.92661 35133 ft 398 kts 47°
2026-05-01 10:29 19.43320 -98.89541 35110 ft 390 kts 22°
2026-05-01 10:29 19.45759 -98.88257 35084 ft 393 kts 25°
2026-05-01 10:30 19.55053 -98.82045 34969 ft 397 kts 35°
2026-05-01 10:31 19.63328 -98.74279 34837 ft 399 kts 44°
2026-05-01 10:32 19.68709 -98.67520 34835 ft 400 kts 51°
2026-05-01 10:33 19.74572 -98.57453 34840 ft 402 kts 61°
2026-05-01 10:34 19.77875 -98.49252 34854 ft 404 kts 69°
2026-05-01 10:34 19.79513 -98.43542 34848 ft 405 kts 74°
2026-05-01 10:35 19.81075 -98.34719 34848 ft 406 kts 82°
2026-05-01 10:35 19.81500 -98.28737 34847 ft 407 kts 87°
2026-05-01 10:36 19.81187 -98.19709 34848 ft 408 kts 95°
2026-05-01 10:37 19.80341 -98.13748 34824 ft 409 kts 101°
2026-05-01 10:37 19.78127 -98.05012 34826 ft 409 kts 109°
2026-05-01 10:38 19.76041 -97.99405 34807 ft 409 kts 114°
2026-05-01 10:38 19.73484 -97.94019 34842 ft 408 kts 120°
2026-05-01 10:39 19.70489 -97.88914 34825 ft 407 kts 125°
2026-05-01 10:39 19.67081 -97.84123 34822 ft 407 kts 130°
2026-05-01 10:40 19.63287 -97.79677 34820 ft 406 kts 136°
2026-05-01 10:40 19.59152 -97.75619 34847 ft 404 kts 141°
2026-05-01 10:41 19.54716 -97.71973 34848 ft 403 kts 146°
2026-05-01 10:42 19.47580 -97.67312 34870 ft 401 kts 153°
2026-05-01 10:42 19.42552 -97.64879 34869 ft 398 kts 168°
2026-05-01 10:42 19.39828 -97.64586 34874 ft 391 kts 187°
2026-05-01 10:43 19.37210 -97.65238 34865 ft 386 kts 207°
2026-05-01 10:43 19.34959 -97.66763 34887 ft 388 kts 226°
2026-05-01 10:43 19.33280 -97.69046 34886 ft 391 kts 245°
2026-05-01 10:43 19.32417 -97.71773 34884 ft 395 kts 263°
2026-05-01 10:44 19.32313 -97.74695 34875 ft 401 kts 273°
2026-05-01 10:44 19.32562 -97.77666 34562 ft 408 kts 279°
2026-05-01 10:44 19.33253 -97.80607 33880 ft 415 kts 290°
2026-05-01 10:44 19.34479 -97.83318 33575 ft 409 kts 301°
2026-05-01 10:45 19.36167 -97.85707 33313 ft 403 kts 312°
2026-05-01 10:45 19.37510 -97.87068 33090 ft 401 kts 320°
2026-05-01 10:45 19.39813 -97.88697 32714 ft 399 kts 331°
2026-05-01 10:45 19.42306 -97.89961 32334 ft 396 kts 334°
2026-05-01 10:46 19.44815 -97.91138 31974 ft 393 kts 335°
2026-05-01 10:46 19.47314 -97.92305 31619 ft 391 kts 335°
2026-05-01 10:46 19.49792 -97.93467 31251 ft 388 kts 335°
2026-05-01 10:46 19.52247 -97.94626 30906 ft 385 kts 335°
2026-05-01 10:47 19.54687 -97.95781 30553 ft 382 kts 335°
2026-05-01 10:47 19.57108 -97.96930 30216 ft 380 kts 335°
2026-05-01 10:47 19.59511 -97.98072 29882 ft 377 kts 335°
2026-05-01 10:47 19.61899 -97.99208 29476 ft 375 kts 335°
2026-05-01 10:48 19.64275 -98.00338 29014 ft 374 kts 334°
2026-05-01 10:48 19.66634 -98.01462 28623 ft 371 kts 334°
2026-05-01 10:48 19.68989 -98.02584 28175 ft 371 kts 334°
2026-05-01 10:48 19.71338 -98.03704 27805 ft 369 kts 334°
2026-05-01 10:49 19.73666 -98.04814 27457 ft 366 kts 334°
2026-05-01 10:49 19.75992 -98.05924 27008 ft 366 kts 334°
2026-05-01 10:49 19.78303 -98.07027 26652 ft 364 kts 334°
2026-05-01 10:49 19.80603 -98.08126 26289 ft 362 kts 335°
2026-05-01 10:50 19.82906 -98.09226 25868 ft 362 kts 334°
2026-05-01 10:50 19.85198 -98.10321 25528 ft 360 kts 333°
2026-05-01 10:50 19.87481 -98.11413 25127 ft 360 kts 334°
2026-05-01 10:50 19.89742 -98.12495 24709 ft 360 kts 334°
2026-05-01 10:51 19.92020 -98.13584 24345 ft 358 kts 334°
2026-05-01 10:51 19.94296 -98.14673 23989 ft 358 kts 334°
2026-05-01 10:51 19.96557 -98.15755 23668 ft 356 kts 334°
2026-05-01 10:51 19.98809 -98.16834 23386 ft 353 kts 334°
2026-05-01 10:52 20.01043 -98.17905 22966 ft 352 kts 334°
2026-05-01 10:52 20.03330 -98.18826 22539 ft 352 kts 343°
2026-05-01 10:52 20.05768 -98.19103 22164 ft 354 kts
2026-05-01 10:52 20.08146 -98.18501 21805 ft 354 kts 23°
2026-05-01 10:53 20.10160 -98.17009 21390 ft 355 kts 46°
2026-05-01 10:53 20.11524 -98.14852 21053 ft 352 kts 68°
2026-05-01 10:53 20.11987 -98.12313 20655 ft 351 kts 92°
2026-05-01 10:53 20.11524 -98.09787 20344 ft 346 kts 112°
2026-05-01 10:54 20.10266 -98.07658 19993 ft 341 kts 137°
2026-05-01 10:54 20.08344 -98.06239 19607 ft 337 kts 157°
2026-05-01 10:54 20.06171 -98.05337 19285 ft 334 kts 162°
2026-05-01 10:54 20.03976 -98.04565 18950 ft 332 kts 162°
2026-05-01 10:55 20.01761 -98.03769 18609 ft 331 kts 162°
2026-05-01 10:55 19.99601 -98.02941 18290 ft 329 kts 161°
2026-05-01 10:55 19.97396 -98.02353 17942 ft 325 kts 176°
2026-05-01 10:55 19.95161 -98.02520 17510 ft 322 kts 196°
2026-05-01 10:56 19.93170 -98.03514 17103 ft 320 kts 217°
2026-05-01 10:56 19.91668 -98.05182 16730 ft 318 kts 238°
2026-05-01 10:56 19.90812 -98.07365 16328 ft 317 kts 259°
2026-05-01 10:56 19.90715 -98.09687 15959 ft 314 kts 274°
2026-05-01 10:57 19.90703 -98.11968 15479 ft 317 kts 262°
2026-05-01 10:57 19.90102 -98.14257 14727 ft 329 kts 249°
2026-05-01 10:57 19.89126 -98.16545 13927 ft 341 kts 245°
2026-05-01 10:57 19.88050 -98.18845 13025 ft 353 kts 244°
2026-05-01 10:58 19.86942 -98.21168 12252 ft 361 kts 243°
2026-05-01 10:58 19.85793 -98.23572 11653 ft 359 kts 243°
2026-05-01 10:58 19.84682 -98.25896 11093 ft 357 kts 242°
2026-05-01 10:58 19.83557 -98.28251 10645 ft 350 kts 242°
2026-05-01 10:59 19.82467 -98.30535 10164 ft 345 kts 242°
2026-05-01 10:59 19.81388 -98.32793 9760 ft 339 kts 242°
2026-05-01 10:59 19.80340 -98.34983 9554 ft 326 kts 242°
2026-05-01 10:59 19.79330 -98.37090 9343 ft 314 kts 242°
2026-05-01 11:00 19.78359 -98.39120 9224 ft 303 kts 242°
2026-05-01 11:00 19.77422 -98.41079 9124 ft 294 kts 241°
2026-05-01 11:00 19.76505 -98.42993 8956 ft 289 kts 242°
2026-05-01 11:00 19.75602 -98.44878 8933 ft 283 kts 242°
2026-05-01 11:01 19.74714 -98.46735 9169 ft 284 kts 242°
2026-05-01 11:01 19.73811 -98.48618 9809 ft 288 kts 242°
2026-05-01 11:01 19.72891 -98.50536 10430 ft 298 kts 242°
2026-05-01 11:01 19.71917 -98.52566 10739 ft 319 kts 242°
2026-05-01 11:02 19.70881 -98.54725 10988 ft 339 kts 243°
2026-05-01 11:02 19.69779 -98.57024 11232 ft 358 kts 243°
2026-05-01 11:02 19.68628 -98.59422 11618 ft 369 kts 243°
2026-05-01 11:02 19.67451 -98.61875 11936 ft 376 kts 243°
2026-05-01 11:03 19.66259 -98.64357 12002 ft 379 kts 243°
2026-05-01 11:03 19.65052 -98.66843 12005 ft 379 kts 242°
2026-05-01 11:03 19.63844 -98.69333 12008 ft 379 kts 244°
2026-05-01 11:03 19.62715 -98.71863 12008 ft 379 kts 246°
2026-05-01 11:04 19.61728 -98.74450 12013 ft 375 kts 249°
2026-05-01 11:04 19.60696 -98.76902 12062 ft 354 kts 242°
2026-05-01 11:04 19.59441 -98.79059 12136 ft 334 kts 236°
2026-05-01 11:04 19.58166 -98.81038 12140 ft 317 kts 238°
2026-05-01 11:05 19.56983 -98.83051 11930 ft 309 kts 240°
2026-05-01 11:05 19.55917 -98.85004 11612 ft 302 kts 240°
2026-05-01 11:05 19.54882 -98.86868 11246 ft 281 kts 240°
2026-05-01 11:05 19.53935 -98.88542 10893 ft 256 kts 239°
2026-05-01 11:06 19.53050 -98.90120 10509 ft 237 kts 239°
2026-05-01 11:06 19.52235 -98.91577 10158 ft 224 kts 239°
2026-05-01 11:06 19.51456 -98.92967 9838 ft 215 kts 239°
2026-05-01 11:07 19.50031 -98.95510 9597 ft 184 kts 239°
2026-05-01 11:07 19.49401 -98.96635 9517 ft 173 kts 239°
2026-05-01 11:07 19.48793 -98.97717 9418 ft 172 kts 239°
2026-05-01 11:07 19.48166 -98.98837 9193 ft 174 kts 239°
2026-05-01 11:08 19.47550 -98.99934 8868 ft 173 kts 239°
2026-05-01 11:08 19.46935 -99.01031 8507 ft 172 kts 239°
2026-05-01 11:08 19.45725 -99.03190 7838 ft 168 kts 239°
2026-05-01 11:09 19.45127 -99.04252 7589 ft 167 kts 239°
2026-05-01 11:09 19.44531 -99.05309 7356 ft 168 kts 239°
2026-05-01 11:09 19.43959 -99.06330 7305 ft 146 kts 239°
2026-05-01 11:10 19.43385 -99.07360 7307 ft 50 kts 239°
2026-05-01 11:10 19.43211 -99.07613 7307 ft 28 kts 221°
2026-05-01 11:10 19.43062 -99.07713 7306 ft 23 kts 209°
2026-05-01 11:10 19.42927 -99.07797 7306 ft 22 kts 211°
2026-05-01 11:11 19.42795 -99.07873 7306 ft 21 kts 198°
2026-05-01 11:11 19.42692 -99.07851 7306 ft 10 kts 144°
2026-05-01 11:11 19.42634 -99.07806 7306 ft 10 kts 144°
2026-05-01 11:11 19.42579 -99.07800 7306 ft 7 kts 195°
2026-05-01 11:12 19.42534 -99.07822 7306 ft 7 kts 207°
2026-05-01 11:12 19.42500 -99.07841 7306 ft 2 kts 207°
2026-05-01 11:12 19.42499 -99.07841 7306 ft 0 kts 207°